Powrót do katalogu

ONEWEB-0572

AktywnyŁącznośćPO
NORAD 55151·PAYLOAD·🇬🇧 United Kingdom

Wystrzelony Jan 10, 2023 z Cape Canaveral Space Force Station

Loading…

Następne Przeloty (najbliższe 24 godziny)

TLE

ŚwieżeSource: CelesTrak SupGP

Epoka: Sep 14, 2026, 07:19 UTC

1 55151C 23004M   26257.30503889 -.00003082  00000+0 -79470-2 0  2574
2 55151  87.9206 348.1676 0001728 103.7737 333.7635 13.17654900    19

Śledź ONEWEB-0572 w czasie rzeczywistym z AllMySat

Download on the App Store